RH
85 87 86 95 99 93 89 84 84 90 96 98 88 85 86 86 82 78 73 68 66 66 67 59 49 49 56 67 67 69 70 70 77 69 67 63 64 64 60 55 58 60 60
86 86 83 83 96 100 92 88 84 84 81 81 82 82 85 83 83 74 69 63 59 58 59 66 60 59 66 69 70 68 68 65 72 74 65 62 59 56 58 60 61 65 68
95 94 92 89 87 90 98 98 96 94 94 96 95 92 83 77 75 67 65 62 56 54 58 59 58 54 55 65 68 69 69 69 75 75 68 64 63 61 66 68 68 73 74
96 98 100 98 94 90 89 91 91 93 98 97 98 96 90 83 77 75 71 63 59 59 58 56 56 58 59 62 63 62 62 69 69 73 76 76 78 81 82 90 92 88 93
95 100 100 100 100 100 100 97 95 96 92 93 99 98 98 98 89 85 78 70 67 65 65 64 62 61 60 60 63 66 72 74 77 81 95 100 97 100 97 86 90 86 85
97 100 100 99 99 100 100 100 100 100 100 100 97 94 99 100 100 99 98 92 86 86 86 80 73 70 69 67 69 77 80 89 92 96 96 99 99 100 100 84 83 96 98
58 67 77 92 98 98 100 100 100 100 100 100 100 100 98 92 89 89 92 100 100 100 95 90 88 85 82 81 78 81 86 92 99 100 100 100 100 97 99 100 97 92 100
36 40 48 53 61 71 86 94 98 100 100 100 100 100 100 99 98 96 98 100 100 100 100 95 96 92 89 88 86 91 90 94 96 99 99 99 97 100 100 100 100 100 100
38 37 39 41 46 51 55 60 72 79 85 91 98 100 100 99 100 100 100 100 100 98 99 99 99 96 93 96 98 93 89 95 98 98 98 98 100 100 100 100 100 100 100
50 47 48 51 52 53 54 56 62 66 70 78 80 82 88 92 100 98 99 100 100 99 100 100 100 100 100 100 100 100 100 100 100 100 100 100 100 100 100 100 99 100 100
59 58 56 52 52 54 61 70 82 92 94 98 99 100 100 100 100 100 100 100 100 100 100 100 100 99 100 100 100 100 100 100 100 100 100 100 100 99 98 100 100 100 100
67 66 63 61 60 60 64 73 93 100 100 98 99 100 100 100 100 100 100 100 100 100 100 100 100 100 100 100 100 99 100 98 100 97 98 100 96 96 98 95 96 97 95
74 73 71 69 67 69 71 79 89 98 99 99 99 99 99 99 99 98 99 99 100 100 100 100 98 100 97 100 100 100 99 98 94 95 97 96 95 97 97 96 98 96 94
79 78 76 74 76 77 76 79 82 89 94 97 97 97 98 97 96 100 100 100 100 100 97 96 98 98 99 94 97 100 96 97 98 97 97 95 96 94 95 95 95 95 95
79 79 79 78 78 81 83 87 90 97 87 85 89 88 89 92 98 97 96 98 97 97 98 97 98 96 97 96 97 96 97 96 95 95 96 95 95 95 95 81 33 20 20
84 83 83 83 83 84 87 90 91 90 89 91 90 80 81 93 95 95 96 96 97 97 96 96 95 95 96 95 95 95 94 95 96 95 96 75 38 20 16 16 16 16 19
87 88 88 86 86 86 88 89 92 95 92 93 95 95 93 86 84 90 95 96 96 97 95 95 95 95 95 96 95 96 94 78 38 21 18 19 20 20 20 20 21 23 25
90 90 89 90 89 89 89 89 88 85 82 84 90 92 95 96 95 90 87 95 95 94 95 95 95 96 94 87 64 44 40 34 28 25 24 26 28 30 33 34 37 38 40
88 89 90 90 91 92 91 90 90 91 94 97 99 94 94 96 96 97 99 92 92 92 93 90 84 65 52 43 39 35 32 27 29 29 29 31 33 37 38 40 42 42 40
91 93 90 90 91 91 92 91 90 88 87 86 82 81 81 92 78 71 63 58 48 42 43 40 41 43 41 36 34 33 36 39 40 38 39 38 38 39 40 41 40 38 38
91 90 93 90 86 85 85 84 82 78 70 55 44 42 37 26 27 32 41 44 47 49 48 46 44 41 40 41 42 43 43 42 43 42 41 40 40 40 39 38 39 42 46
76 81 83 79 82 79 74 66 53 45 45 43 44 42 38 30 31 33 34 36 40 42 41 40 37 35 34 36 38 38 40 42 42 43 43 41 40 39 39 41 46 51 58
51 56 62 66 64 63 57 52 50 49 49 49 49 44 40 36 36 34 35 37 36 34 34 35 35 36 36 37 38 40 42 44 45 44 44 43 41 42 43 47 55 64 70
53 54 54 58 61 61 58 54 54 56 56 56 54 50 48 46 42 39 38 36 34 34 38 39 38 37 37 38 40 42 44 45 45 45 45 45 44 46 50 58 72 79 84
46 51 54 56 62 62 64 64 64 62 58 53 53 52 51 50 49 44 41 41 40 39 40 41 42 44 45 49 51 51 51 51 50 50 49 48 48 51 60 74 82 86 87
46 46 44 47 48 52 53 56 59 60 56 56 57 55 49 44 43 43 44 46 46 45 45 45 48 50 53 55 54 53 52 52 52 52 53 54 56 62 71 78 84 86 88
Wind_Speed
19 19 20 22 24 24 24 25 29 32 37 42 39 40 38 38 38 39 39 41 43 45 48 48 45 48 47 47 45 44 45 46 50 50 50 49 48 46 45 46 47 49 49
16 18 19 20 22 25 27 28 31 37 35 35 37 40 43 46 45 47 48 48 49 51 51 51 51 49 50 50 48 48 49 49 50 53 53 53 53 52 51 53 51 50 51
18 19 19 19 22 23 26 29 32 36 40 40 40 42 46 46 48 50 52 53 54 53 52 52 54 53 54 53 54 54 54 54 55 55 57 58 57 56 56 55 54 54 52
15 17 19 19 20 22 24 27 28 30 35 38 40 41 44 47 50 52 54 55 56 58 58 59 60 59 61 60 60 60 59 59 59 60 60 60 58 56 57 54 53 50 51
6 9 16 17 20 23 26 27 30 32 32 34 37 41 44 48 51 53 56 60 62 62 62 64 64 65 66 66 65 65 63 63 62 59 53 49 50 46 51 51 51 49 50
7 4 3 11 18 21 23 25 29 33 37 37 38 39 42 45 49 53 56 60 61 62 63 63 64 65 65 67 67 64 63 57 58 55 53 50 50 50 49 52 51 52 52
5 2 2 5 9 12 16 24 26 31 31 36 39 42 45 46 47 48 48 52 55 58 61 62 62 62 62 62 61 61 60 59 58 59 59 56 56 54 53 49 54 54 55
8 8 7 6 7 10 13 16 19 25 29 31 37 42 45 48 48 50 52 50 49 53 55 59 61 61 61 59 57 57 55 54 55 56 59 62 62 61 60 58 53 50 52
13 13 13 12 12 12 12 12 16 21 25 28 31 36 35 46 50 53 52 53 54 55 54 52 54 57 58 56 55 56 55 54 57 58 60 62 64 67 68 69 65 51 39
13 14 16 18 18 17 15 15 16 17 21 24 25 30 35 40 46 53 53 51 54 56 55 56 59 61 61 61 60 60 62 61 62 62 59 59 57 49 41 37 30 29 28
13 13 14 15 16 18 19 19 17 16 17 20 22 22 24 31 37 47 51 52 52 51 52 54 58 63 64 63 63 55 55 58 52 46 29 17 17 18 14 11 14 13 10
10 11 12 14 14 15 15 15 16 15 14 14 15 17 18 21 26 30 37 44 46 42 36 34 37 42 56 60 52 38 33 29 27 20 18 16 17 15 14 13 9 8 8
12 13 15 16 16 17 16 16 14 13 14 15 15 15 16 17 19 21 21 16 16 18 15 18 13 4 7 5 14 18 19 20 19 20 17 15 13 10 8 6 3 4 3
15 16 18 20 22 23 24 25 22 20 17 16 18 20 19 19 19 17 13 10 6 8 13 9 12 14 20 25 24 20 24 21 15 16 14 13 7 8 5 6 5 5 3
15 16 18 20 23 26 26 28 28 26 22 21 22 22 24 25 20 13 13 15 18 23 22 25 24 26 26 25 22 20 20 17 15 12 10 10 6 4 4 5 4 4 4
16 17 18 19 21 22 24 25 25 24 24 25 23 23 24 20 17 17 17 17 16 17 18 24 22 24 20 21 18 17 17 14 12 10 7 5 4 4 6 6 6 6 5
17 18 17 18 18 19 20 20 21 20 19 20 20 19 18 17 15 14 13 11 12 10 17 20 19 19 19 17 15 12 13 10 9 7 6 6 7 6 5 6 6 5 6
15 15 15 15 15 15 15 15 14 14 14 15 15 15 15 14 13 12 11 7 10 14 17 17 16 14 13 12 11 12 12 12 9 9 8 8 7 7 6 7 8 7 7
10 11 10 10 10 10 10 10 10 10 12 13 11 11 13 11 9 9 8 10 12 11 11 10 10 10 11 11 11 10 10 10 8 9 9 8 8 7 7 7 8 8 8
10 9 8 7 7 7 8 8 8 9 9 10 10 12 11 7 6 9 11 11 11 11 11 10 10 9 9 10 10 10 9 8 7 8 7 7 7 7 7 7 7 8 8
8 6 6 5 6 6 6 7 9 9 10 11 12 12 11 10 11 11 11 11 11 11 10 9 9 8 8 8 8 7 6 6 6 7 7 6 6 6 7 7 9 9 9
6 6 5 5 6 6 6 7 8 9 10 10 11 11 11 9 10 10 10 10 9 8 7 7 7 6 6 6 6 6 6 6 6 6 7 7 7 7 8 8 9 10 9
6 6 5 5 5 6 6 7 8 9 10 10 10 9 9 10 10 9 9 9 8 8 8 8 8 7 7 7 7 7 8 7 6 7 8 9 9 8 8 8 8 8 8
6 5 5 5 5 5 6 6 7 7 8 8 8 9 10 10 9 9 8 8 8 8 8 8 9 9 9 8 8 8 7 6 8 8 8 8 8 8 7 7 7 8 9
6 5 5 5 5 5 6 6 6 6 7 7 8 8 8 9 9 8 7 7 8 8 8 7 7 7 7 6 6 7 7 8 9 9 9 8 8 8 8 8 8 9 10
5 5 5 5 5 5 5 6 6 6 7 8 8 8 8 8 8 8 8 8 8 8 8 7 7 7 7 8 8 9 9 9 9 9 10 9 9 8 8 8 8 9 10
Wind_Direction
228 232 231 230 230 227 225 224 222 220 218 222 224 222 227 232 233 233 232 230 232 231 235 240 242 241 246 251 253 254 256 256 260 265 269 272 274 277 276 280 279 277 278
233 235 244 241 236 232 232 228 226 224 225 232 238 239 236 233 233 233 233 235 237 238 240 241 243 244 248 253 257 258 260 260 263 267 270 273 275 277 279 281 280 279 280
248 247 247 248 245 242 237 236 237 236 242 247 247 245 242 240 240 238 238 240 243 244 245 246 248 248 251 253 256 259 262 264 265 267 271 274 276 278 282 283 283 283 281
249 251 256 258 259 257 254 249 247 245 245 248 249 248 247 246 246 244 244 245 247 249 251 252 253 252 254 256 258 261 264 266 269 271 273 275 275 277 281 281 280 281 281
136 210 245 268 273 269 263 261 259 259 259 257 253 252 250 249 247 249 249 250 251 252 253 254 255 256 258 259 260 262 265 265 267 266 265 265 269 265 268 281 278 281 282
103 120 223 239 242 256 272 278 273 268 265 264 263 262 258 255 255 252 249 250 252 255 257 257 257 258 259 262 263 265 263 261 264 261 263 264 265 264 266 275 278 276 270
53 58 199 231 242 250 254 253 255 266 275 274 273 269 267 267 267 268 265 256 255 256 258 260 261 262 263 264 264 265 265 265 263 263 264 265 267 269 270 266 271 274 270
27 17 1 330 292 265 255 257 259 256 255 256 264 272 274 276 276 275 273 268 261 260 263 262 262 263 263 264 265 267 268 266 266 265 265 266 265 265 265 265 264 266 261
8 6 357 349 338 327 309 282 267 263 264 265 266 265 265 271 277 278 274 267 262 263 263 264 265 267 268 267 266 266 266 264 264 261 259 260 261 262 262 262 260 258 247
8 360 348 344 340 334 327 316 310 300 288 283 278 271 267 266 267 269 268 264 262 265 268 263 257 258 260 262 260 260 262 257 255 254 253 253 254 257 259 254 245 236 229
8 359 350 345 341 338 337 333 328 323 316 312 308 300 288 273 259 258 260 263 259 256 256 256 256 257 256 254 252 246 242 244 242 238 228 208 201 191 169 165 174 186 188
26 17 14 10 6 359 352 345 337 334 342 336 327 321 311 299 294 286 273 265 261 253 250 245 246 256 257 255 251 241 226 212 196 171 131 122 120 111 108 125 127 127 135
41 43 42 38 38 36 31 25 17 11 7 9 9 2 356 350 340 340 339 333 288 253 210 212 181 216 225 170 192 194 170 152 140 123 117 119 115 93 104 87 78 76 49
52 53 53 53 54 53 53 50 49 48 46 48 45 42 37 31 24 22 33 52 99 129 134 107 102 114 99 113 120 119 122 127 130 120 120 108 85 82 43 45 23 12 345
63 66 66 63 63 61 61 60 58 59 54 60 67 69 63 57 53 53 71 87 99 112 113 116 109 106 106 103 101 103 99 97 101 89 91 88 82 54 22 5 9 22 12
82 79 79 79 77 77 79 80 79 80 78 75 72 66 71 67 59 62 68 76 88 96 105 94 92 93 90 89 85 83 81 80 80 78 57 52 33 42 39 27 21 24 19
73 76 79 80 81 83 82 82 84 78 76 76 71 68 67 74 74 65 55 56 68 76 80 80 79 76 76 73 73 64 65 52 48 51 55 46 37 27 33 44 36 24 28
73 76 74 73 74 75 73 75 76 73 71 69 65 59 57 53 51 61 61 55 68 62 67 69 68 64 62 59 56 60 64 66 59 58 50 50 52 42 28 42 39 26 21
64 65 61 60 58 60 63 63 63 62 63 69 70 66 56 47 47 60 65 58 62 61 59 59 60 61 65 65 62 59 56 57 53 52 49 42 36 25 18 25 15 3 357
38 40 37 48 58 55 54 53 53 50 46 45 41 45 42 26 32 40 49 58 66 71 68 64 64 61 58 56 54 49 45 47 45 40 35 29 23 13 3 1 351 344 343
22 29 37 29 38 40 39 39 41 37 37 37 41 46 43 40 54 58 60 63 64 63 61 58 58 53 52 50 50 47 36 28 22 17 13 7 1 346 340 338 336 332 335
6 9 13 24 34 32 30 28 27 29 36 40 45 45 43 46 56 60 60 58 55 51 48 44 37 34 33 29 22 14 4 358 355 352 346 338 334 330 327 325 325 326 329
8 5 9 16 24 29 23 32 36 39 42 44 46 45 42 41 41 42 42 42 37 28 24 20 14 7 4 2 357 349 345 339 333 329 324 319 321 319 318 315 313 314 320
8 5 11 20 26 30 31 33 35 37 36 30 25 25 24 26 24 20 19 17 11 6 6 359 349 343 341 337 329 323 321 315 311 308 307 306 304 303 300 303 316 316 313
3 5 12 19 21 21 19 17 15 14 8 3 1 1 2 0 353 346 341 338 337 334 332 332 329 323 320 319 309 304 303 306 306 306 306 303 303 308 311 310 308 305 306
5 5 2 3 0 359 352 345 341 340 337 342 342 339 336 335 330 325 320 318 317 316 315 316 318 320 321 316 310 307 307 309 309 309 307 308 306 305 306 309 310 310 307